Weather History for Garden City, KS

Change the Weather History Date:

Wednesday, January 18, 2012

  Actual Average Record
Temperature  
Mean Temperature 34 °F 31 °F  
Max Temperature 53 °F 44 °F 70 °F (1976)
Min Temperature 15 °F 18 °F -3 °F (1963)
Degree Days  
Heating Degree Days 31 34  
Month to date heating degree days 612  
Since 1 July heating degree days 2735  
Cooling Degree Days 0 0  
Month to date cooling degree days 0  
Year to date cooling degree days 0  
Moisture  
Dew Point 15 °F    
Average Humidity 56    
Maximum Humidity 77    
Minimum Humidity 20    
Precipitation  
Precipitation 0.00 in 0.01 in 0.29 in (1979)
Month to date precipitation 0.19  
Year to date precipitation 0.19  
Sea Level Pressure  
Sea Level Pressure 30.03 in    
Wind  
Wind Speed 9 mph (SSW)    
Max Wind Speed 13 mph    
Max Gust Speed -    
Visibility 10 miles    
Events      
T = Trace of Precipitation, MM = Missing Value Source: NWS Daily Summary

Daily Weather History Graph

Daily Weather History Graph

Search for Another Location

Airport:

Trip Planner

Search our weather history database for the weather conditions in past years. The results will help you decide how hot, cold, wet, or windy it might be!

Date:

Astronomy

Jan. 18, 2012 Rise Set
Actual Time 7:56 AM CST 5:50 PM CST
Civil Twilight 7:27 AM CST 6:18 PM CST
Nautical Twilight 6:55 AM CST 6:51 PM CST
Astronomical Twilight 6:24 AM CST 7:22 PM CST
Moon 3:27 AM CST (1/18) 1:31 PM CST (1/18)
Length of Visible Light 10h 50m
Length of Day
9h 53m
Waning Crescent, 24% of the Moon is Illuminated
Jan 18
Waning Crescent
Jan 23
New
Jan 30
First Quarter
Feb 7
Full
Feb 14
Last Quarter

Hourly Weather History & Observations

Time (CST) Temp. Windchill Dew Point Humidity Pressure Visibility Wind Dir Wind Speed Gust Speed Precip Events Conditions
12:54 AM 18.0 °F 6.1 °F 8.1 °F 65% 30.27 in 10.0 mi South 10.4 mph - N/A   Clear
1:54 AM 18.0 °F 5.4 °F 8.1 °F 65% 30.25 in 10.0 mi South 11.5 mph - N/A   Clear
2:54 AM 16.0 °F 8.8 °F 8.1 °F 71% 30.25 in 10.0 mi South 4.6 mph - N/A   Clear
3:54 AM 15.1 °F 3.3 °F 9.0 °F 77% 30.23 in 10.0 mi South 9.2 mph - N/A   Clear
4:54 AM 16.0 °F 6.3 °F 9.0 °F 74% 30.18 in 10.0 mi SSW 6.9 mph - N/A   Clear
5:54 AM 19.0 °F 6.8 °F 10.0 °F 68% 30.13 in 10.0 mi South 11.5 mph - N/A   Clear
6:54 AM 19.0 °F 6.8 °F 12.0 °F 74% 30.14 in 10.0 mi SSW 11.5 mph - N/A   Clear
7:25 AM 19.4 °F 7.9 °F 12.2 °F 74% 30.04 in 10.0 mi SSW 10.4 mph - N/A   Mostly Cloudy
7:54 AM 19.0 °F 8.2 °F 12.9 °F 77% 30.13 in 10.0 mi SSW 9.2 mph - N/A   Mostly Cloudy
8:54 AM 21.0 °F 12.4 °F 14.0 °F 74% 30.13 in 10.0 mi SSW 6.9 mph - N/A   Mostly Cloudy
9:54 AM 26.1 °F 16.2 °F 16.0 °F 66% 30.13 in 10.0 mi SW 10.4 mph - N/A   Mostly Cloudy
10:54 AM 32.0 °F 23.6 °F 18.0 °F 56% 30.12 in 10.0 mi WSW 10.4 mph - N/A   Clear
11:54 AM 37.9 °F 30.0 °F 18.0 °F 45% 30.07 in 10.0 mi WSW 12.7 mph - N/A   Clear
12:54 PM 43.0 °F 36.8 °F 17.1 °F 35% 30.03 in 10.0 mi West 11.5 mph - N/A   Clear
1:54 PM 48.2 °F - 15.8 °F 27% 29.93 in 10.0 mi WSW 6.9 mph - N/A   Clear
2:54 PM 51.1 °F - 12.9 °F 22% 29.94 in 10.0 mi WSW 8.1 mph - N/A   Clear
3:54 PM 53.1 °F - 12.9 °F 20% 29.92 in 10.0 mi SW 10.4 mph - N/A   Clear
4:54 PM 48.0 °F - 17.1 °F 29% 29.92 in 10.0 mi South 6.9 mph - N/A   Clear
5:54 PM 41.0 °F 36.4 °F 18.0 °F 40% 29.91 in 10.0 mi South 6.9 mph - N/A   Clear
6:54 PM 37.0 °F 31.0 °F 18.0 °F 46% 29.89 in 10.0 mi South 8.1 mph - N/A   Clear
7:54 PM 35.1 °F 27.9 °F 18.0 °F 50% 29.87 in 10.0 mi SSE 9.2 mph - N/A   Clear
8:54 PM 36.0 °F 28.5 °F 19.0 °F 50% 29.85 in 10.0 mi SSE 10.4 mph - N/A   Clear
9:54 PM 33.1 °F 26.9 °F 19.9 °F 59% 29.80 in 10.0 mi South 6.9 mph - N/A   Clear
10:54 PM 30.9 °F 24.3 °F 19.9 °F 64% 29.77 in 10.0 mi SSE 6.9 mph - N/A   Clear
11:54 PM 28.9 °F 21.9 °F 19.9 °F 69% 29.76 in 10.0 mi South 6.9 mph - N/A   Clear